Погода в Илиме

Россия / Забайкальский край     52°12′43″N   116°02′19″E
темп.,
°C
ветер,
м/с
пор.,
м/с
влажн.,
%
обл.,
%
осадки,
мм/ч
давл.,
гПа
погр.,
м
24 июля, сб
сб2400:00+16юз33710 0.0 100137
03:00+13юз35740 0.1 100180
06:00+12з2282100 0.0 100229
09:00+16сз247780 0.1 1002502
12:00+20с446881 0.2 10021219
15:00+20ссз567245 2.8 10021103
18:00+19ссз68795 2.4 1003972
21:00+15ссз5108086 2.6 1004352
25 июля, вс
вс2500:00+15ссз5117584 0.0 1005570
03:00+14сз367848 0.0 1005132
06:00+13зсз238899 0.0 100657
09:00+16ссз497687 0.0 1006618
12:00+19с676788 0.1 10051193
15:00+20с466536 0.4 10051280
18:00+19с577213 1.0 10051107
21:00+15ссз498347 1.5 1007184
26 июля, пн
пн2600:00+13ссз3588100 0.0 100797
03:00+13ссз339194 0.0 100862
06:00+13ссз239167 0.0 1008102
09:00+16ссв347959 0.0 1008505
12:00+19всв337344 0.7 1007926
15:00+20св236916 2.3 10061032
18:00+19св44787 1.8 1006724
21:00+15св369210 4.4 1008111
27 июля, вт
вт2700:00+13с22945 0.0 100824
03:00+12ссз229555 0.0 100820
06:00+12ссз11945 0.0 100913
09:00+16с228412 0.0 1008387
12:00+19всв227551 0.6 1007866
15:00+20св117299 3.0 1005846
18:00+21в117070 0.6 1004904
21:00+17зсз118491 1.6 100411
28 июля, ср
ср2800:00+15ссз1188100 0.3 100411
03:00+15сз1190100 0.3 100411
06:00+15ссз0193100 0.2 100411
09:00+16ссв129141 0.7 1004184
12:00+19св118095 0.9 1003694
15:00+21ююв0176100 3.3 1001716
18:00+20сз018088 4.6 1000263
21:00+18с1186100 6.4 99911